Wind_Speed
3 3 3 3 1 2 1 3 2 2 3 2 1 1 1 1 0 1 1 1 1 1 1 1 2 4 3 1 4 5 3 1 4 2 1 0 5 16 13 8 14 13 12 12 13 13 10 9 8 8 10 11 10 9 11 14 14 14 13 14 15 13 14 15 13 13 15 15 14 15 15 15 15 15 15 16 16 16 16 15 16 17 18 18 17 18 18 18 18 18 18 17 17 18 18 18 18
3 3 2 1 3 1 1 2 3 2 3 2 1 1 2 1 0 3 4 3 2 1 1 3 4 5 5 4 5 5 2 2 3 2 1 5 11 15 9 10 15 12 12 12 14 14 10 9 8 9 10 10 11 11 13 15 15 15 14 13 14 14 14 14 13 14 15 14 14 15 14 15 15 15 15 16 16 16 16 16 17 17 17 17 17 18 18 17 17 17 17 17 17 17 17 18 18
2 2 2 0 2 3 1 3 2 0 3 1 2 2 1 1 3 4 5 3 4 3 2 3 3 3 3 3 2 2 1 1 4 2 4 10 12 12 9 11 14 11 11 13 15 14 10 9 8 9 10 11 12 12 14 15 15 15 14 13 13 15 14 13 14 15 15 14 15 15 14 14 15 15 15 15 16 16 17 17 18 17 16 17 17 17 17 16 16 16 16 16 16 16 17 17 17
3 3 3 0 1 3 3 3 1 2 2 1 2 2 2 4 5 4 4 4 4 3 2 1 2 1 1 2 1 1 1 3 4 2 7 10 10 12 12 14 13 12 12 14 16 13 11 9 8 9 11 12 12 13 14 14 15 13 12 11 13 14 13 14 14 14 15 15 14 14 14 14 14 15 14 15 16 16 16 16 17 17 16 16 16 16 16 16 16 16 15 15 15 16 16 16 17
4 7 4 2 2 2 2 3 2 2 1 3 0 3 4 5 5 4 3 4 3 1 2 2 2 0 1 2 1 1 2 4 4 4 9 11 12 15 14 15 14 12 13 14 16 14 11 10 9 11 12 12 13 13 13 14 13 11 10 12 15 14 13 15 13 13 14 14 13 12 13 14 14 14 14 15 15 15 16 15 16 16 16 15 15 15 15 16 15 15 15 15 15 15 15 15 16
4 8 9 6 3 1 2 2 2 0 2 4 1 4 5 5 5 5 4 2 2 0 2 2 2 2 2 1 0 2 3 4 5 7 11 13 15 16 16 16 13 13 14 15 15 14 12 11 11 12 13 13 13 13 13 12 11 10 10 13 15 13 11 12 11 11 11 13 13 12 13 14 14 14 14 14 14 14 14 14 15 15 15 15 15 15 15 15 15 15 14 14 14 14 14 14 15
2 2 5 6 3 2 2 2 2 2 2 3 3 3 4 4 5 6 6 2 1 1 1 2 2 5 2 1 1 0 3 4 6 11 14 15 16 17 17 16 13 14 15 16 16 14 12 11 12 13 13 13 13 12 12 10 9 9 9 13 14 11 9 10 11 10 10 11 12 12 13 14 13 13 13 14 13 14 13 14 14 15 15 15 14 14 14 14 14 13 12 12 12 12 13 14 14
4 1 1 4 2 3 3 1 2 2 1 1 3 3 3 4 5 7 6 2 1 1 1 2 1 4 1 1 1 1 2 5 8 15 15 16 18 18 18 16 14 16 17 17 16 14 13 12 12 13 13 13 12 12 12 10 9 8 8 11 13 11 9 11 11 10 10 10 11 12 12 12 12 13 13 13 13 13 13 13 14 14 14 14 13 13 13 13 13 11 11 11 12 12 13 14 14
5 4 0 2 2 2 2 1 2 2 2 3 3 4 3 4 4 5 6 1 0 2 2 2 0 1 1 2 0 2 1 5 12 17 15 17 19 19 19 16 15 17 19 18 16 15 13 12 12 12 13 12 12 12 11 9 8 6 7 9 12 11 10 11 10 9 9 9 11 10 11 12 11 12 12 12 12 12 12 12 13 13 13 13 12 12 12 12 11 10 11 11 11 12 13 13 13
5 4 1 2 2 1 3 2 1 1 3 4 3 4 3 5 4 3 5 2 1 3 2 1 1 2 4 3 1 0 2 8 17 17 15 19 20 20 19 16 15 17 20 19 16 15 14 13 11 11 12 12 11 11 10 8 6 5 7 8 10 11 11 9 8 8 7 8 10 9 11 12 11 11 11 11 11 11 11 11 12 13 13 12 11 11 11 11 10 9 11 11 10 11 12 12 12
3 3 2 3 2 1 2 2 2 2 4 3 3 4 4 5 4 3 3 3 2 2 2 1 2 4 4 2 1 0 6 12 16 17 17 20 19 20 18 16 16 16 20 20 18 16 14 14 12 11 11 11 11 10 9 8 6 5 6 5 7 10 11 8 6 7 6 7 8 9 11 11 11 11 10 11 11 11 11 11 11 12 12 11 10 10 10 10 9 9 10 10 10 11 11 11 11
2 2 3 3 2 2 2 2 3 4 5 2 1 3 3 5 4 3 3 4 3 2 3 3 3 5 4 1 1 0 8 13 14 17 19 19 19 19 18 17 16 16 19 19 18 17 15 14 14 13 11 11 10 10 10 9 6 5 5 4 6 10 10 9 6 7 6 7 7 9 11 11 11 10 10 11 11 11 10 10 10 11 10 10 10 9 9 8 8 7 8 9 9 10 10 10 10
2 1 4 2 2 2 2 2 3 4 4 1 2 2 4 5 3 5 5 4 4 4 4 4 4 4 3 1 1 1 9 14 13 17 19 19 20 19 18 17 16 17 18 19 19 17 16 14 14 15 13 12 10 10 10 10 7 5 4 4 7 10 10 9 7 6 7 8 8 8 9 11 11 9 10 10 10 10 10 10 9 9 10 10 9 8 8 7 7 7 7 7 7 8 9 9 10
1 2 3 2 1 2 3 0 1 2 3 3 1 3 4 2 3 5 7 5 5 5 2 3 5 3 2 1 1 2 10 16 16 19 19 18 20 20 18 17 16 17 17 18 18 17 17 15 15 15 15 14 12 11 10 10 8 5 4 3 7 10 11 10 9 7 7 7 7 7 7 8 8 8 8 8 8 8 10 10 9 9 9 9 8 7 7 6 7 7 5 5 5 7 7 8 9
2 2 3 3 2 1 2 0 1 2 2 3 2 4 4 0 3 4 5 6 5 4 1 2 4 2 2 4 3 4 13 19 19 21 20 18 19 20 18 17 17 16 16 17 17 17 17 16 16 16 16 15 14 12 11 9 8 6 4 3 6 10 10 10 9 7 6 5 6 5 4 5 6 7 7 7 8 8 8 9 8 8 7 7 7 7 7 7 7 6 4 3 4 5 6 7 7
2 3 3 3 1 0 2 1 2 2 3 3 0 1 4 1 2 4 3 3 2 0 2 2 2 0 3 5 2 5 17 21 21 22 21 19 19 18 17 16 16 16 16 16 16 17 17 17 16 15 16 16 15 14 11 9 8 6 4 2 6 9 9 8 8 7 6 6 5 5 4 4 6 6 7 8 8 7 6 6 6 6 6 6 7 7 7 7 7 5 4 2 2 3 4 5 6
2 3 4 1 2 2 3 3 3 1 4 3 2 2 6 1 1 1 1 3 3 0 2 2 2 1 3 2 4 7 22 22 22 23 21 20 19 17 15 14 15 14 15 17 17 18 17 17 16 15 15 16 15 14 12 11 10 8 6 4 5 9 9 7 8 8 7 6 6 5 4 4 5 6 8 7 6 6 6 6 5 5 6 6 7 7 7 7 6 4 3 2 2 2 3 4 5
3 2 3 1 2 2 4 5 4 1 3 2 2 3 5 3 2 2 0 3 3 1 2 3 3 4 3 3 2 13 25 24 24 24 23 21 19 18 16 16 15 13 15 18 19 19 18 17 18 16 15 16 14 13 13 12 12 10 8 6 6 8 9 7 7 8 8 7 7 6 5 4 4 5 6 5 4 5 5 6 5 5 6 6 6 6 7 6 5 4 3 2 2 2 2 3 4
2 3 2 2 3 3 4 4 3 2 4 3 2 2 4 5 4 3 2 1 3 2 3 3 3 5 3 0 8 17 23 25 25 25 24 22 21 20 18 17 17 16 17 19 20 21 20 19 19 18 16 16 14 13 13 13 13 11 11 9 7 9 10 9 8 8 8 8 8 7 6 4 4 5 5 4 4 4 4 4 5 5 5 5 5 5 5 5 4 4 3 2 2 2 2 2 3
1 3 1 3 4 3 3 3 3 3 3 3 3 1 2 4 4 3 4 1 1 4 5 2 4 7 3 3 14 19 21 25 25 25 24 23 22 22 21 20 20 21 21 21 21 22 22 21 21 20 18 17 16 14 13 13 13 12 12 11 9 9 10 10 9 8 9 9 9 8 6 5 5 4 4 4 4 4 3 3 3 4 4 4 4 4 4 3 3 3 2 1 1 1 2 3 4
1 2 2 3 3 1 3 4 4 3 2 2 2 2 2 3 2 3 6 4 2 6 8 9 10 10 7 7 15 19 21 24 25 25 24 22 22 22 22 23 22 21 20 20 22 23 22 22 22 21 20 19 17 15 14 14 14 14 13 12 11 10 10 10 10 9 9 9 9 8 7 6 5 5 4 4 4 4 3 3 3 2 2 2 3 3 3 3 3 2 2 1 1 1 3 5 6
0 2 1 3 3 1 4 4 3 2 2 2 1 2 3 2 2 3 9 6 5 6 7 9 9 9 10 11 17 19 21 23 24 26 25 23 23 22 21 21 20 19 19 21 23 23 22 23 23 22 21 20 19 17 16 15 14 14 13 13 12 11 11 10 10 10 9 10 10 9 8 7 6 6 5 5 4 4 3 3 3 2 1 1 2 2 2 3 3 2 2 2 2 3 4 6 7
1 2 1 2 3 1 3 2 2 2 1 3 3 3 2 3 3 2 8 9 5 3 5 6 7 9 11 13 17 17 19 23 25 27 27 26 25 23 22 21 21 21 22 23 23 23 22 22 23 22 21 21 20 18 17 16 15 15 14 13 12 12 11 10 10 10 10 9 9 9 9 8 8 7 6 5 4 4 3 3 3 3 2 2 2 2 3 3 3 3 3 3 3 4 5 6 8
1 2 2 2 4 3 4 2 3 2 4 5 2 1 2 6 4 1 6 10 4 2 3 4 7 12 14 13 16 17 20 25 27 28 27 27 27 25 23 23 24 24 23 24 24 23 23 23 23 22 22 21 20 19 19 18 17 16 14 14 13 12 12 11 11 10 10 9 9 9 9 9 8 7 5 4 3 3 2 2 2 2 1 2 2 3 3 3 3 2 3 3 4 5 6 6 8
1 3 3 2 3 4 4 4 5 3 5 3 1 2 4 6 3 1 8 10 5 2 3 3 8 11 12 12 15 17 18 22 24 25 24 25 25 24 23 23 24 23 23 25 25 25 24 23 23 23 22 21 21 20 20 19 18 17 16 15 14 13 13 12 11 11 10 10 9 10 10 9 8 6 5 3 2 1 1 1 1 1 1 2 2 2 2 1 1 2 3 3 4 5 6 6 7
3 3 3 3 3 4 3 3 3 2 3 2 3 4 5 3 1 4 7 6 5 2 5 4 6 8 9 10 14 17 17 19 22 23 23 23 23 24 24 24 24 23 23 24 24 26 26 24 24 24 23 22 21 21 20 20 19 18 17 17 15 15 14 13 12 12 11 11 11 10 10 9 8 6 5 4 3 1 1 0 1 1 2 3 3 2 2 2 2 2 3 4 5 5 6 7 8
2 2 4 5 4 4 1 1 2 0 1 4 5 3 4 2 1 4 4 2 1 5 4 3 6 7 8 8 12 17 17 20 23 22 21 20 22 25 26 25 25 24 24 23 23 25 26 26 26 25 24 23 22 22 21 20 19 19 18 17 16 16 15 14 13 13 12 13 12 12 11 10 8 7 5 4 3 3 2 1 1 1 2 2 3 2 2 2 2 3 3 5 6 7 8 8 9
0 2 5 5 4 3 1 1 3 0 1 5 6 2 3 2 2 5 2 3 1 6 4 3 5 6 7 7 8 12 16 19 21 20 21 23 23 25 26 26 25 24 25 25 23 23 24 26 27 26 26 25 24 23 22 21 20 20 19 18 17 16 15 14 14 13 13 13 13 13 13 11 10 8 6 5 4 3 3 2 2 2 2 3 3 3 3 4 3 4 4 5 7 9 9 9 11
1 2 3 6 6 4 3 2 2 2 2 5 6 0 3 3 7 5 1 1 3 5 3 3 5 5 4 6 5 8 13 16 18 20 23 25 25 25 26 27 27 26 26 26 25 24 24 25 27 28 27 26 25 25 24 23 22 21 20 18 18 17 16 15 15 14 14 14 14 14 14 13 11 9 7 6 4 4 3 3 3 3 3 4 4 4 5 5 5 6 6 7 9 11 12 12 14
1 2 2 4 6 5 4 1 2 4 3 4 4 2 4 8 12 5 1 3 6 4 4 4 5 4 3 4 4 6 10 14 18 23 25 25 25 25 25 26 27 27 26 26 27 26 25 24 26 27 28 28 27 26 26 24 23 21 20 19 19 18 17 16 16 15 14 14 15 15 14 14 13 10 9 7 6 5 4 4 4 4 4 5 6 6 6 7 7 8 9 10 13 13 13 14 15
1 0 1 1 0 4 5 2 4 4 2 3 4 3 5 8 11 5 1 3 6 5 5 4 5 4 4 4 5 6 9 15 19 22 24 24 25 25 25 26 26 28 27 27 28 28 27 25 24 24 26 29 29 28 28 26 24 23 21 20 20 19 18 17 16 16 15 14 15 15 15 14 13 11 10 9 8 7 6 6 6 6 6 7 8 8 8 9 9 10 12 14 15 13 12 13 14
2 1 2 2 1 4 7 1 5 4 0 2 5 3 6 8 8 4 2 1 4 6 6 5 5 5 5 5 6 6 7 13 17 18 21 24 26 26 27 28 27 29 29 29 29 28 28 27 27 25 25 29 30 30 29 27 26 24 23 21 21 20 19 19 17 16 16 15 15 15 14 14 13 12 11 10 9 9 8 8 8 8 8 9 9 8 9 10 11 13 13 13 13 13 13 14 15
2 1 1 1 1 2 4 3 0 1 1 1 3 2 3 4 5 4 2 3 3 5 6 5 5 6 5 5 5 5 5 8 12 18 23 25 28 29 29 29 29 31 31 31 30 29 29 29 30 28 28 28 29 30 30 28 28 26 25 23 22 22 22 21 19 17 17 17 17 15 15 14 13 12 11 11 11 10 10 9 9 9 9 9 9 10 11 12 12 14 14 13 13 14 14 15 17
1 1 2 1 1 1 2 3 4 4 2 3 4 4 5 5 4 4 2 4 5 5 7 5 5 5 4 4 4 5 6 6 9 19 27 29 29 29 29 29 29 30 31 32 32 31 31 30 31 30 29 29 29 30 30 30 29 28 26 24 23 23 23 22 21 20 19 18 18 17 16 16 15 14 13 13 13 12 12 11 11 10 11 12 12 12 11 10 11 12 13 12 12 13 13 14 16
5 3 3 2 2 1 1 2 3 4 1 3 3 4 9 10 9 6 1 3 6 6 7 5 5 5 4 5 5 6 7 7 13 23 26 26 27 27 28 29 28 29 30 31 31 31 31 31 30 30 30 30 30 30 30 30 30 30 29 27 26 25 25 24 23 23 21 20 20 19 19 18 17 16 15 15 14 14 14 14 13 11 11 12 11 11 11 11 11 10 10 9 9 10 11 13 14
8 5 4 3 3 1 2 3 2 1 1 4 5 5 9 10 11 7 2 3 5 5 5 4 6 5 5 5 6 7 8 10 18 22 21 20 24 26 28 29 29 29 29 29 30 31 31 31 31 31 32 32 31 31 30 30 30 31 30 29 29 28 28 26 25 25 23 22 22 21 21 20 19 18 17 17 17 17 16 15 14 12 11 10 11 10 10 11 11 11 11 9 10 10 11 12 13
8 5 4 4 2 2 3 3 3 1 1 5 4 5 9 10 11 8 3 1 3 5 6 6 7 6 6 6 7 9 9 12 16 17 17 19 23 24 26 28 29 29 29 29 30 32 33 33 33 34 34 33 33 33 32 31 31 31 30 31 31 29 28 27 26 26 25 25 23 22 23 22 21 20 19 19 19 19 18 18 17 16 14 13 14 14 14 14 14 14 14 12 11 11 11 11 12
7 6 4 4 3 2 4 3 4 1 2 4 2 3 9 10 12 9 3 2 6 7 7 8 8 7 6 7 10 10 8 10 13 14 16 19 21 23 25 26 28 29 31 33 34 35 35 34 35 36 36 35 35 35 34 33 33 32 31 31 30 29 29 28 28 28 27 26 25 24 24 23 22 21 20 20 21 21 20 20 20 19 17 16 16 17 17 17 17 17 17 15 13 13 13 13 13
6 4 4 3 2 2 4 3 3 1 2 4 2 1 8 10 12 10 6 7 8 8 9 9 8 7 7 8 10 9 7 9 10 12 16 21 23 24 24 26 29 32 34 35 35 35 35 35 37 37 36 37 37 37 36 36 35 34 32 31 30 29 29 29 28 28 27 27 27 26 25 23 22 22 21 22 22 21 20 20 21 20 19 18 17 17 17 17 17 17 17 16 15 14 13 12 11
4 4 5 3 2 2 3 2 3 1 2 2 1 3 7 8 9 9 7 7 7 7 8 8 7 8 9 8 7 8 9 11 11 10 12 18 22 23 25 28 30 32 33 33 34 36 37 38 39 39 38 38 38 38 38 37 36 34 33 32 30 29 28 28 27 27 28 28 28 27 26 25 24 22 22 22 22 21 20 20 21 21 19 17 17 17 17 15 15 15 14 13 12 12 11 9 8
2 4 5 3 3 3 3 2 4 3 2 1 2 4 5 5 8 10 5 1 5 6 5 8 7 8 8 5 6 8 10 11 11 11 10 13 19 23 27 30 30 31 33 34 35 38 40 41 41 40 39 39 39 40 39 38 35 34 32 29 27 26 26 26 26 27 28 28 27 27 27 26 25 25 23 23 22 21 23 24 22 21 20 18 18 17 16 14 14 15 14 13 12 11 9 7 5
2 3 6 6 7 5 3 2 5 3 3 2 2 3 5 4 6 9 5 3 6 4 4 8 9 7 6 6 9 10 10 10 10 11 9 11 18 23 26 28 29 31 34 36 36 38 40 41 40 40 40 40 40 40 39 38 37 35 33 31 29 27 26 27 28 29 28 27 26 25 25 24 23 24 23 23 22 21 22 23 22 22 21 20 19 18 15 14 15 15 14 13 12 10 8 6 5
2 5 9 8 7 7 4 1 2 0 3 1 2 2 5 5 5 7 4 4 8 6 5 9 9 7 7 8 10 9 10 10 9 11 10 12 17 20 23 28 31 34 36 35 35 36 37 38 38 39 40 40 40 39 39 38 38 36 35 35 33 31 30 30 30 30 28 27 25 24 23 22 21 22 23 23 23 22 20 19 19 19 19 18 18 19 18 17 15 14 12 10 10 8 8 8 7
3 6 11 9 7 7 5 3 2 3 2 2 3 2 3 6 6 6 2 4 9 8 7 8 8 9 9 9 10 10 11 10 8 10 10 12 17 20 24 28 31 34 34 33 33 34 35 36 38 38 39 39 39 38 38 39 39 38 37 36 35 34 33 32 31 30 29 28 26 25 24 22 22 22 23 23 24 23 22 21 20 19 19 19 18 19 20 17 12 10 10 10 9 7 8 8 7
4 5 9 8 7 6 4 4 3 1 2 3 2 2 2 6 6 3 2 5 10 9 9 9 9 10 10 10 11 11 11 9 8 9 10 12 17 21 24 25 27 30 30 30 32 33 34 35 36 36 37 38 38 37 38 39 39 39 38 37 35 35 34 33 31 28 28 26 26 25 24 23 23 23 24 25 24 22 20 21 22 22 19 18 17 16 15 12 8 7 8 9 9 8 8 6 5
2 6 7 4 3 4 3 3 2 1 1 4 2 2 2 7 6 2 2 4 7 8 8 9 9 9 10 9 10 10 8 6 6 8 10 13 17 19 21 23 25 27 27 28 30 31 32 33 34 35 36 37 37 37 38 38 39 39 39 38 36 35 33 32 30 27 26 25 25 25 24 24 23 23 24 23 20 19 18 17 19 19 16 15 16 13 11 8 7 7 7 8 10 8 7 5 4
6 7 7 6 4 4 3 1 2 1 3 3 3 4 3 6 5 4 5 5 5 7 7 7 9 9 10 10 9 8 6 5 5 5 9 14 17 18 18 21 25 25 24 25 28 30 31 32 33 35 36 36 36 36 37 38 39 39 39 39 37 36 34 32 31 28 26 26 26 26 25 24 23 23 22 19 16 18 18 17 17 16 13 13 14 12 9 7 7 9 9 10 9 7 7 6 5
7 4 5 4 2 3 2 3 2 3 4 3 5 3 6 7 6 3 5 5 4 7 7 9 10 10 10 8 6 6 5 5 5 5 7 10 12 14 16 20 22 22 22 24 27 28 30 31 33 34 35 36 36 36 37 38 38 39 39 38 37 37 35 33 33 31 30 29 28 27 26 24 23 22 20 18 18 19 20 19 18 18 15 14 14 11 10 10 9 11 11 10 9 8 8 9 9
5 4 6 5 1 1 2 2 1 4 4 3 4 2 4 9 6 4 8 8 7 9 8 10 10 9 10 8 5 5 4 5 5 5 6 6 7 10 14 18 20 20 22 24 26 27 29 30 31 32 34 34 34 35 36 37 37 38 38 38 37 36 35 35 34 33 33 32 31 29 27 26 24 22 21 20 19 20 22 21 20 20 19 18 15 12 12 12 13 13 12 11 11 11 12 13 12
6 6 7 6 5 4 6 4 2 4 4 2 2 2 4 6 3 6 12 12 10 8 8 9 9 10 11 8 6 6 6 7 6 6 6 6 7 10 13 15 17 19 21 23 24 26 27 28 29 31 32 31 32 34 34 35 36 37 37 37 37 36 35 35 35 34 34 33 32 31 29 28 27 24 24 22 19 18 21 19 18 20 20 18 15 13 13 13 14 16 16 14 14 14 14 13 12
8 6 5 4 5 5 6 5 3 4 2 1 1 2 3 2 2 6 9 9 9 7 6 7 8 9 8 8 8 8 9 8 6 6 7 7 9 12 12 12 14 16 18 19 21 22 24 26 27 29 30 30 30 32 33 34 35 36 36 36 36 36 35 35 36 35 34 33 32 32 31 29 28 25 24 22 18 18 20 18 18 20 19 16 14 15 16 16 16 17 17 17 16 14 13 14 15
3 2 3 3 4 4 3 4 4 3 2 1 3 4 4 3 6 8 6 5 6 7 7 7 8 8 5 7 9 8 9 8 6 6 6 7 10 11 10 8 9 11 13 16 18 19 21 22 24 26 27 28 28 29 31 33 34 34 35 35 35 35 35 35 35 34 34 33 32 32 31 29 27 25 24 22 19 20 21 21 22 22 18 15 14 15 17 17 18 18 18 17 16 15 18 19 19
2 2 5 4 3 7 5 1 1 3 2 3 2 4 5 3 7 9 5 6 8 8 7 7 8 7 5 7 9 8 7 6 6 6 5 6 8 9 9 7 7 8 9 11 13 15 17 18 20 22 24 25 27 28 30 31 32 33 33 34 34 34 35 35 35 34 33 33 31 31 30 28 27 25 24 23 20 21 24 24 24 21 16 14 15 15 17 17 18 18 17 18 19 21 22 20 19
5 6 7 3 3 3 4 2 2 3 3 4 2 5 5 3 5 6 4 5 10 10 7 5 6 6 5 8 8 7 7 6 6 6 5 6 8 8 8 8 7 7 7 7 9 11 13 14 16 19 21 23 25 26 28 29 30 31 32 33 33 34 34 34 34 33 32 31 31 30 29 28 27 26 26 25 23 24 25 24 22 19 16 16 16 16 17 17 17 18 20 22 24 23 22 20 18
4 5 4 4 3 2 2 3 2 2 3 4 3 4 4 6 6 4 3 3 7 10 8 6 7 5 5 8 8 6 6 5 5 5 4 5 7 9 8 7 7 7 6 7 8 9 10 11 13 15 17 19 22 24 26 27 29 30 31 31 32 33 33 33 32 32 31 31 31 30 29 29 28 28 28 28 27 27 26 23 21 20 17 17 17 18 18 19 21 23 26 26 24 23 21 20 17
2 1 2 1 2 3 3 3 3 3 3 3 3 4 3 6 6 5 7 8 9 11 11 9 8 5 5 6 7 7 7 5 5 5 4 4 6 8 7 6 5 5 6 6 7 8 9 10 11 13 14 16 18 20 23 25 27 28 29 29 30 31 31 31 31 31 31 31 31 31 31 31 31 30 30 30 30 30 28 24 23 21 20 20 21 21 22 24 25 27 27 26 24 22 20 19 17
4 5 6 4 1 1 2 2 2 4 4 3 2 4 5 5 4 9 11 10 11 12 10 9 7 5 6 6 6 6 7 6 6 5 5 4 6 7 5 6 5 5 6 6 7 8 8 9 10 12 13 15 16 18 19 22 24 26 27 28 28 28 29 29 30 30 31 31 31 32 32 32 32 31 31 31 31 29 27 24 23 22 22 22 24 25 26 27 27 27 26 25 24 22 19 17 16
7 6 7 8 5 4 4 3 1 2 3 4 3 5 8 4 4 7 9 9 11 9 6 6 6 6 7 6 6 6 6 7 6 5 5 4 6 6 6 7 7 7 8 8 9 9 9 10 10 11 12 14 16 17 18 19 20 22 25 26 26 27 27 28 29 30 31 31 32 33 33 33 33 32 31 31 30 28 25 22 23 24 24 25 27 28 29 28 28 27 25 24 22 20 18 17 16
Wind_Direction
24 19 339 341 317 190 33 48 89 336 70 82 299 161 226 191 130 187 177 218 164 226 211 121 130 128 114 125 151 136 100 156 164 142 215 151 144 157 157 151 148 148 147 142 138 137 138 141 144 136 133 136 131 122 118 117 109 99 90 88 81 67 83 94 89 86 86 88 87 84 85 85 86 88 88 87 86 86 89 91 90 86 86 85 82 82 83 84 84 84 82 82 80 76 75 74 75
22 9 349 7 11 18 243 62 95 325 48 58 279 181 267 345 225 187 181 208 184 181 139 118 109 96 75 83 118 122 72 21 188 201 76 125 143 157 159 153 153 150 147 143 142 142 143 142 138 135 136 132 126 122 119 115 105 97 94 90 82 79 90 93 88 92 93 89 85 84 85 86 86 87 88 88 87 88 88 90 91 90 88 85 83 82 83 85 86 85 84 83 78 76 77 77 77
20 353 360 349 13 41 86 42 83 18 61 37 274 238 266 153 209 198 194 203 158 144 109 109 101 89 62 78 92 88 114 135 191 214 122 137 149 162 165 159 156 150 145 143 146 146 144 139 134 136 135 129 125 123 121 115 107 104 102 97 92 92 94 90 90 96 99 91 86 88 89 88 88 87 88 88 87 88 89 91 93 91 89 85 83 83 85 86 86 87 85 82 78 78 79 78 79
33 13 357 240 31 37 61 38 119 120 81 217 287 257 216 189 206 199 208 187 149 123 85 106 85 55 26 98 96 53 135 163 180 162 140 154 162 165 165 163 158 151 143 143 150 149 142 134 132 134 130 128 125 122 121 117 114 113 107 101 99 98 96 94 95 98 99 95 91 92 92 92 91 90 88 87 86 87 89 91 93 92 88 84 84 82 84 87 88 87 85 82 80 79 77 74 76
60 39 27 120 83 44 93 65 112 87 144 190 36 262 224 202 193 172 185 181 166 107 100 113 96 311 23 96 135 131 142 145 163 149 148 161 164 165 166 164 159 151 143 145 151 149 141 131 130 133 129 128 126 124 120 117 118 112 102 101 102 101 100 98 100 99 97 97 100 100 98 97 92 90 90 90 89 89 91 92 94 94 89 85 85 83 81 84 85 84 83 82 81 79 74 71 74
92 56 48 76 89 111 126 87 109 143 227 176 168 257 233 200 186 156 141 187 227 170 139 137 145 147 82 21 256 168 164 136 153 158 154 159 165 170 166 163 159 150 144 147 150 146 138 129 131 134 129 128 131 128 120 119 120 108 100 103 104 106 105 103 104 101 99 100 105 102 97 98 97 96 96 96 94 92 93 96 99 98 94 90 88 86 84 85 85 85 85 84 82 79 74 73 75
113 70 37 65 65 43 103 142 169 230 234 169 186 249 234 197 180 145 138 182 232 342 126 167 150 126 95 287 188 183 187 165 152 163 162 158 168 173 164 161 157 149 148 150 150 145 139 131 131 134 132 132 131 128 125 126 123 108 101 108 111 111 109 110 112 108 106 107 109 104 97 98 99 99 98 98 96 94 92 95 102 102 99 95 91 88 86 86 86 88 87 85 82 78 76 75 76
66 60 342 77 38 27 83 151 226 216 227 240 232 251 238 181 166 146 152 185 191 258 102 160 121 113 106 10 122 359 166 173 160 165 164 159 170 169 163 162 156 151 152 155 153 146 142 139 136 134 135 137 133 129 133 129 120 111 104 115 117 115 112 111 115 114 108 110 112 108 103 102 100 100 99 98 97 96 94 95 101 104 102 97 92 90 87 86 88 90 88 83 80 77 76 76 75
44 39 192 81 69 40 45 324 269 245 261 273 254 257 249 157 155 142 150 191 225 169 135 167 256 120 154 70 168 312 83 165 162 164 162 164 171 166 164 165 158 154 155 159 157 150 148 149 145 140 138 139 137 133 138 132 122 117 109 120 125 121 117 118 123 120 114 117 116 110 107 106 105 105 102 98 97 97 96 98 101 104 105 101 96 93 90 87 87 90 88 84 81 77 75 74 72
36 25 121 76 93 35 333 303 278 271 250 257 253 250 209 152 142 126 140 158 160 152 161 151 84 127 138 115 186 277 118 153 157 162 164 166 169 164 166 168 161 157 159 162 160 158 156 155 152 150 147 142 140 139 140 136 129 121 112 118 132 128 120 128 135 123 116 114 110 101 104 107 105 104 102 100 99 99 96 97 102 105 106 104 98 95 93 87 86 90 87 83 79 75 72 71 69
35 360 91 79 79 120 265 245 280 276 268 291 274 253 195 156 124 106 100 125 146 141 179 151 128 143 116 127 230 184 149 157 160 163 165 165 166 165 167 167 164 160 163 165 164 165 164 162 162 164 163 152 146 146 141 138 136 126 119 110 130 136 127 128 128 122 119 112 109 106 109 109 105 104 102 99 98 99 94 93 100 103 103 103 100 95 95 91 88 92 87 81 76 71 70 69 65
90 338 63 93 134 189 206 217 278 289 299 327 201 247 183 147 126 152 143 140 155 147 222 202 159 137 100 152 249 57 159 168 171 166 164 163 163 167 169 168 165 163 167 170 169 170 171 171 171 174 178 169 155 153 149 147 151 138 129 107 121 135 132 130 130 133 134 130 122 114 115 113 109 104 105 105 103 102 96 94 99 102 101 104 103 96 95 93 92 94 86 78 73 69 67 65 62
116 130 88 122 164 166 160 185 276 322 322 269 186 219 147 144 169 185 152 131 147 153 247 209 151 108 106 224 291 293 181 180 178 169 165 161 164 169 171 170 166 166 170 174 175 175 176 176 174 176 181 182 174 166 166 161 161 155 140 117 129 139 140 142 148 150 139 137 133 122 119 120 120 115 118 120 115 114 106 98 97 102 104 104 101 100 101 101 105 103 88 75 67 63 61 59 56
111 159 110 134 78 120 168 203 328 23 304 255 186 168 152 161 191 174 140 137 184 182 262 186 155 123 124 206 265 245 194 183 176 173 169 161 166 172 173 173 168 168 172 177 179 179 181 181 179 180 181 184 182 178 180 172 164 169 161 139 153 156 157 159 164 160 146 138 135 133 122 120 125 120 125 123 113 113 106 100 96 99 103 105 108 110 111 114 121 118 100 79 61 54 49 48 47
112 143 87 107 48 13 185 9 79 110 260 226 149 163 157 342 140 152 159 158 209 217 106 158 169 176 171 172 201 220 188 179 174 174 172 165 167 173 174 172 170 170 173 179 180 182 184 184 186 184 183 184 182 182 186 179 171 183 185 172 177 172 167 174 177 168 164 156 146 154 141 120 122 116 122 119 109 104 102 108 107 104 106 111 115 111 113 126 134 128 117 94 57 46 41 41 40
103 114 68 87 100 293 189 172 126 114 262 224 308 184 146 282 129 152 221 154 162 290 74 186 196 338 177 172 253 210 179 174 173 173 171 166 165 170 173 170 170 171 175 181 180 183 184 184 187 182 180 183 182 185 189 183 179 188 195 182 184 182 172 178 188 183 180 176 167 171 168 134 121 115 122 120 109 94 92 112 116 110 109 110 109 108 118 132 137 134 132 114 62 41 36 38 37
55 72 70 66 148 198 195 178 183 162 276 265 301 232 149 200 292 183 267 86 107 78 355 260 248 294 189 204 330 177 171 171 171 171 167 165 163 164 169 170 171 173 179 183 182 183 183 182 184 178 173 176 179 186 191 189 189 191 194 184 183 190 181 178 190 193 191 184 178 178 173 144 121 116 123 122 105 86 82 96 102 98 99 104 110 117 125 133 140 142 137 118 82 54 45 41 34
47 71 99 187 171 197 181 177 205 191 329 298 218 211 161 178 206 176 60 52 58 76 303 301 279 270 240 291 346 160 165 168 170 170 167 167 167 165 169 175 177 181 182 183 187 186 184 182 183 180 172 173 178 184 190 193 196 197 196 192 187 189 188 189 189 190 193 188 186 184 177 157 130 124 128 127 110 93 86 91 94 97 102 108 117 125 131 137 140 133 125 114 96 84 66 44 30
62 114 111 214 194 210 186 184 219 215 332 311 237 204 175 197 168 151 200 312 54 137 260 325 311 265 282 21 145 156 164 168 172 173 173 173 174 173 174 180 182 186 185 185 188 188 187 184 184 184 178 177 180 183 189 193 196 196 192 193 194 187 188 193 191 186 188 187 187 185 178 166 146 137 136 134 122 109 100 99 101 109 117 122 130 134 133 133 128 121 118 113 97 82 59 29 13
106 121 110 231 213 240 199 203 241 244 310 315 277 144 192 223 161 161 179 160 109 190 223 224 244 233 225 155 150 157 168 173 176 177 179 181 181 181 181 185 188 189 189 189 188 189 191 188 187 186 184 183 182 182 187 191 192 193 192 194 196 190 188 189 191 189 188 187 186 184 181 173 162 155 147 143 134 125 119 114 112 117 124 134 144 144 141 140 134 138 137 120 96 47 359 355 352
119 148 169 198 188 274 217 206 244 252 219 249 271 127 222 237 177 184 151 138 241 237 222 203 212 202 183 176 163 164 172 178 182 183 185 187 187 188 190 192 195 194 191 191 191 192 192 191 191 189 188 188 186 184 184 188 192 195 196 196 195 193 190 188 190 192 191 191 189 188 188 183 177 168 160 156 149 144 144 142 140 135 133 151 161 159 161 168 169 179 197 210 258 331 334 342 344
155 222 156 170 158 231 248 223 227 226 182 193 168 175 213 177 188 192 160 178 229 231 228 214 213 188 172 174 171 170 175 183 188 189 190 191 192 192 194 196 199 201 197 197 196 195 194 194 194 192 191 190 190 189 185 187 190 194 195 192 193 193 192 191 191 192 193 193 193 194 192 189 182 170 163 158 154 153 161 167 172 174 173 186 199 215 209 204 208 214 234 252 275 310 328 336 339
198 266 355 188 157 208 255 252 227 155 145 202 189 216 175 155 237 193 180 211 208 216 250 228 213 180 166 163 169 175 179 187 193 194 193 193 195 195 194 195 200 205 204 204 202 199 199 196 196 196 195 194 193 192 190 190 191 194 193 192 192 193 196 195 193 192 192 193 194 194 191 189 183 174 166 157 150 149 165 184 189 200 217 236 247 263 257 248 248 250 264 280 293 308 324 333 341
164 254 292 191 166 222 234 245 281 177 190 226 207 186 161 192 221 98 216 230 211 274 298 215 181 160 156 159 173 184 185 191 195 198 199 197 197 197 196 197 202 206 207 209 208 205 204 201 200 199 199 198 197 195 194 195 197 197 196 196 196 196 200 200 198 196 194 196 194 193 190 189 188 184 178 167 158 142 154 177 179 204 241 262 276 290 285 274 278 293 304 310 314 319 331 338 348
183 234 271 228 196 242 251 262 283 232 210 234 181 230 241 211 181 157 236 237 232 280 27 119 147 147 157 168 181 189 191 194 197 200 204 205 204 203 202 202 204 206 209 211 211 211 209 206 205 204 204 203 201 200 199 198 200 202 202 203 201 201 203 202 202 202 201 202 201 200 198 198 200 200 197 197 189 144 129 131 114 82 20 355 355 6 359 356 342 346 345 338 334 332 338 342 348
198 208 262 277 281 289 292 278 281 244 224 147 175 258 286 239 184 263 250 234 220 125 68 103 135 151 170 177 185 190 194 196 198 201 205 208 208 209 209 208 207 208 211 213 213 214 213 211 210 209 209 208 207 206 205 203 203 205 207 208 207 207 208 206 206 207 210 211 212 212 211 214 218 218 218 220 228 235 235 115 80 49 23 21 29 33 29 33 15 4 359 350 344 341 340 339 339
174 215 268 259 282 294 341 348 312 358 211 167 181 251 291 287 269 252 272 313 211 112 96 130 149 177 185 185 191 192 196 197 198 200 202 206 208 210 212 211 211 212 214 215 214 215 215 215 215 215 214 213 213 212 211 210 209 210 211 212 212 213 213 212 212 214 216 219 222 222 222 224 226 230 228 231 245 249 259 282 291 341 13 11 5 360 351 344 335 340 344 341 338 337 338 339 333
129 294 285 270 300 287 181 308 284 246 193 177 162 216 300 333 253 226 256 337 140 133 149 178 180 199 195 193 196 195 202 202 198 197 202 206 207 208 211 212 213 215 217 218 218 217 216 217 218 218 218 217 217 218 218 216 216 216 216 217 218 218 218 218 219 221 223 226 227 227 229 229 230 232 230 237 248 250 264 274 280 307 328 323 319 318 315 310 313 321 323 328 332 333 333 333 323
346 355 310 293 342 327 247 243 235 163 189 179 146 285 291 231 230 237 333 43 107 124 175 212 211 215 202 202 202 205 209 203 199 202 208 210 210 211 212 214 213 216 219 221 222 221 217 217 219 221 221 221 220 221 223 222 223 222 222 222 223 224 222 223 225 228 231 232 233 233 234 234 235 235 233 236 241 248 260 266 282 305 316 307 297 299 302 297 301 306 309 317 320 318 316 313 303
268 28 13 308 347 321 283 18 116 149 173 165 149 256 264 239 239 244 40 134 114 130 207 214 225 230 216 209 207 218 214 206 205 208 212 212 214 216 217 217 215 217 220 222 224 225 222 219 219 222 222 224 224 224 225 226 226 227 227 227 227 228 226 227 230 232 234 234 236 237 236 238 239 238 236 235 241 250 254 267 280 292 305 302 295 296 294 294 296 297 299 301 301 299 298 301 299
144 346 345 349 305 275 296 34 125 154 171 129 143 238 264 260 257 259 290 165 144 189 227 213 223 233 223 212 210 223 219 215 217 216 215 214 216 218 220 220 218 218 220 221 224 226 226 225 222 222 224 226 226 226 227 228 229 230 229 230 230 230 229 230 232 233 234 234 235 236 237 238 238 239 237 237 246 252 258 268 275 280 285 283 284 286 285 288 289 287 290 289 286 283 288 300 305
46 195 309 5 184 275 313 357 148 168 308 110 146 218 268 268 271 291 308 193 169 209 229 220 222 228 225 221 215 222 227 227 230 228 223 219 219 220 222 222 220 220 220 222 225 226 228 230 227 225 226 229 228 228 229 230 231 231 231 232 233 235 235 236 236 236 236 235 233 234 235 235 235 237 239 243 247 250 259 265 271 275 271 267 272 278 281 284 286 286 288 286 283 286 294 299 301
7 135 220 324 150 286 320 335 168 139 68 203 201 216 269 278 286 325 6 163 178 232 243 235 230 233 227 226 226 228 236 237 238 236 230 224 222 222 223 224 224 224 223 224 226 226 229 232 233 232 229 230 231 231 231 231 232 233 233 233 234 237 239 240 241 240 238 237 235 234 234 233 233 236 241 245 247 249 251 255 265 264 259 266 276 280 282 284 286 288 288 286 286 293 298 294 293
311 131 179 214 176 171 296 320 350 17 92 211 239 233 244 262 278 316 4 154 168 232 249 248 244 243 236 233 240 241 238 237 236 234 231 227 225 224 224 226 227 228 228 229 229 229 231 235 237 238 235 233 233 234 233 233 234 235 236 235 235 237 240 242 242 242 241 240 239 239 238 236 234 238 244 245 248 248 244 256 273 266 259 268 277 278 275 278 288 290 286 281 281 290 294 292 292
176 174 162 199 213 178 284 285 342 8 10 226 218 239 255 266 271 275 288 157 177 224 245 248 249 245 241 237 235 239 238 241 239 235 233 230 228 227 226 227 228 229 230 231 232 232 234 236 237 238 238 236 236 236 235 234 234 235 237 237 237 239 241 242 242 243 243 242 243 242 241 241 238 240 244 245 249 245 241 257 274 272 264 263 269 272 265 267 283 293 290 280 280 286 288 293 296
164 165 147 160 202 224 260 261 285 45 350 270 224 227 253 261 266 263 252 168 188 237 263 254 251 245 239 236 233 237 235 240 244 242 240 236 233 231 229 228 228 229 230 231 232 232 233 233 234 235 236 236 236 235 234 233 232 233 234 236 237 238 240 241 243 244 245 245 246 245 243 243 240 240 242 244 247 244 240 247 260 270 267 259 261 267 271 272 276 281 281 277 280 284 287 296 303
144 135 126 127 139 269 263 265 294 130 166 272 242 236 257 259 265 262 243 191 223 247 258 249 246 240 233 231 235 236 233 244 251 249 243 239 236 234 232 230 229 228 230 230 231 232 232 232 231 233 235 234 233 232 231 230 229 229 230 233 235 237 239 241 243 245 247 248 248 248 247 245 244 242 242 244 245 244 241 240 250 264 264 260 262 266 275 277 274 274 271 269 279 290 296 302 311
138 141 144 126 126 246 256 252 299 347 182 270 319 260 261 262 265 260 207 223 251 234 234 247 242 237 238 236 239 239 240 254 257 248 240 237 235 234 232 230 227 227 228 228 230 231 232 231 230 233 234 232 232 232 230 230 230 229 229 231 234 236 239 241 243 246 247 246 246 246 246 245 246 244 243 245 245 244 243 240 246 256 257 259 262 264 270 272 271 272 269 267 275 286 293 299 310
139 132 141 161 171 248 268 263 308 8 185 264 360 301 264 263 265 261 214 219 247 231 222 237 233 229 233 231 237 241 245 256 255 244 235 233 233 231 229 228 227 229 230 229 229 230 231 230 231 231 231 231 233 232 231 231 232 233 233 234 235 236 240 243 245 248 248 246 246 245 245 244 244 244 244 244 243 242 242 242 246 253 257 259 258 261 265 265 263 265 267 269 273 278 285 294 302
128 126 141 184 192 205 238 261 306 291 183 257 322 303 276 269 272 268 233 220 251 251 237 242 234 226 231 234 238 234 234 244 250 246 233 229 230 227 224 226 228 228 229 227 227 229 229 230 231 230 229 230 232 232 233 234 234 236 237 239 239 240 243 246 247 248 247 246 246 246 246 245 242 242 243 243 244 245 246 248 250 253 255 256 256 257 257 256 256 259 264 267 265 267 276 285 287
133 149 152 166 182 190 212 272 322 323 9 12 331 309 279 255 259 261 260 269 269 275 272 264 252 239 245 268 260 235 230 237 243 245 233 221 224 225 224 226 227 225 226 226 226 228 229 230 230 229 229 229 231 232 233 232 232 233 234 233 234 236 237 239 240 240 241 242 243 245 246 245 242 237 238 245 249 250 249 248 248 249 248 248 250 249 248 251 256 262 265 259 252 254 265 270 255
189 199 173 174 178 176 207 313 4 11 344 358 8 298 274 274 263 252 271 313 266 281 298 266 258 251 247 255 251 241 239 239 240 246 239 221 224 227 227 226 224 224 227 229 230 231 230 230 230 229 229 229 230 230 230 229 227 227 225 223 222 223 224 227 231 234 235 237 240 243 243 243 242 238 239 246 252 254 248 240 242 245 245 245 245 241 238 244 255 267 271 259 249 246 246 238 217
214 210 179 175 163 155 182 236 43 101 249 290 79 228 269 304 285 257 277 287 266 273 279 264 262 259 240 239 245 241 242 241 239 247 244 230 227 226 228 226 224 227 232 233 232 232 230 229 230 230 230 229 229 228 227 226 224 223 222 222 221 221 222 227 232 235 236 238 239 239 239 239 239 240 241 244 250 253 242 234 237 240 241 243 241 236 235 242 252 264 265 250 246 241 226 214 199
231 205 169 167 159 167 176 136 162 225 260 329 44 117 267 288 266 261 305 290 277 275 269 265 261 257 245 240 245 240 239 236 233 243 241 235 231 228 230 230 228 231 235 233 232 231 231 231 231 230 230 229 228 227 226 224 222 220 221 222 223 223 224 229 232 234 236 237 236 236 236 237 237 238 239 243 251 248 236 235 237 237 243 244 242 240 239 241 245 250 248 238 234 222 205 201 187
240 185 156 169 168 170 153 125 199 258 352 314 359 99 256 273 264 293 327 253 263 268 262 259 254 253 249 243 245 243 243 237 229 241 244 241 239 237 240 240 239 239 237 234 234 234 233 233 231 230 229 229 228 226 225 224 223 221 221 221 222 224 227 231 233 234 233 232 232 232 234 235 235 236 237 244 249 240 233 239 236 234 244 246 245 242 231 227 232 239 240 223 209 190 183 191 182
196 136 108 97 107 101 101 135 179 47 310 243 214 129 256 273 257 255 295 243 247 258 261 258 252 253 252 250 250 248 252 248 234 241 248 250 249 248 250 250 247 245 241 238 237 236 234 233 231 229 229 228 228 227 225 224 223 222 222 221 222 224 226 229 230 230 228 226 226 227 228 230 233 237 241 242 237 225 229 241 235 232 240 242 237 225 211 221 235 236 224 195 186 182 182 193 207
128 118 84 66 57 57 70 91 109 118 266 246 219 161 149 278 261 188 214 221 205 226 251 260 256 257 254 250 252 256 262 259 250 255 262 264 263 259 254 250 248 246 242 239 236 234 233 232 230 229 230 229 227 226 225 225 224 222 222 222 223 224 224 225 225 224 223 221 221 223 226 231 235 237 239 236 223 216 226 236 235 235 234 225 216 207 218 249 236 218 207 190 187 190 200 224 242
134 120 115 107 38 39 44 3 55 213 253 253 248 187 154 237 253 183 229 243 211 215 228 246 248 252 256 253 253 264 266 262 268 271 272 278 277 267 253 246 246 243 239 236 234 232 231 230 229 228 229 228 226 226 225 225 224 223 224 224 224 225 224 223 222 222 221 220 221 224 226 228 232 232 228 225 220 218 222 227 230 233 227 216 215 221 237 244 223 204 199 204 216 220 227 239 238
150 122 138 138 84 91 207 277 205 232 252 227 230 201 197 242 251 237 251 253 240 225 220 238 249 255 264 268 269 276 273 262 267 268 268 276 276 268 255 246 243 239 235 234 232 230 229 228 227 227 228 227 226 226 225 225 225 224 224 224 225 226 225 224 224 223 223 223 223 223 224 224 226 225 218 218 223 218 216 221 225 225 219 214 217 220 217 218 217 214 215 222 227 227 234 240 233
178 168 165 159 146 166 204 208 209 247 255 246 217 199 256 281 278 232 239 245 248 241 234 241 248 257 267 280 288 286 280 268 259 260 264 263 258 259 255 250 245 240 235 233 230 228 227 227 226 226 229 229 227 226 226 226 226 226 226 226 226 226 225 225 226 226 225 225 224 224 225 225 225 225 218 218 225 218 212 219 223 218 210 205 208 216 221 228 229 229 231 228 223 228 233 226 207
186 182 163 169 169 174 195 191 194 225 233 278 264 208 214 226 256 232 226 246 268 274 265 254 252 258 269 288 291 280 273 266 253 251 255 253 253 256 256 253 249 243 238 233 230 226 224 225 225 226 228 228 227 227 226 226 227 227 227 227 227 227 226 227 228 229 229 228 227 225 226 226 227 228 222 219 223 217 211 214 215 209 203 201 214 231 241 243 236 227 223 222 223 220 203 177 164
199 160 138 212 191 145 148 180 175 165 165 231 220 228 218 205 274 270 236 248 275 270 268 270 268 267 269 276 274 266 264 264 256 256 262 258 255 254 251 247 243 239 235 232 229 226 224 225 226 227 229 230 229 229 228 228 229 229 228 228 228 227 228 228 228 229 230 230 230 228 228 228 229 228 220 216 216 212 209 208 204 199 199 212 231 241 241 236 227 218 214 213 204 182 165 159 157
144 163 192 208 151 117 116 188 70 95 186 242 218 251 286 309 286 280 272 276 281 273 269 270 271 278 283 269 264 264 268 271 269 263 264 266 265 258 248 234 224 222 223 226 226 226 227 229 229 230 231 230 230 230 231 231 230 230 229 229 229 228 228 228 229 229 230 230 231 230 230 229 227 223 215 212 211 207 205 203 198 195 206 229 239 239 233 225 215 208 202 190 173 162 159 158 158
141 190 197 144 98 101 110 152 5 64 212 267 265 245 273 279 265 300 336 276 267 275 280 275 275 282 284 271 266 267 265 268 275 271 266 267 263 256 245 229 218 214 212 215 217 220 224 227 229 231 232 232 232 232 232 233 232 231 231 230 229 229 229 229 230 230 230 229 228 227 227 226 223 218 212 209 207 204 201 199 197 200 217 232 231 224 216 205 195 185 176 169 161 160 161 158 159
154 199 192 132 163 205 141 158 169 161 222 280 300 279 258 213 228 295 337 253 260 281 292 295 289 281 276 279 281 285 281 278 283 278 269 261 253 247 238 228 221 215 213 213 213 217 221 225 228 231 234 235 236 235 234 234 233 233 233 233 231 230 230 229 229 229 229 228 226 225 224 223 220 216 211 206 203 201 200 201 202 206 216 218 212 205 193 180 173 168 164 162 160 163 165 160 160
73 156 185 157 150 172 170 164 158 166 201 250 304 320 270 222 207 206 234 247 255 267 276 279 276 260 253 273 289 300 300 294 289 276 265 258 257 252 242 236 230 219 220 219 219 223 223 227 231 232 235 236 236 236 235 235 234 234 234 233 233 231 230 229 229 228 228 226 226 225 222 221 217 213 210 205 201 199 198 201 204 205 207 205 197 188 178 170 167 165 164 163 162 166 170 164 162
159 162 183 197 163 123 155 159 130 135 162 198 277 291 262 247 198 188 208 229 237 247 258 263 271 270 261 264 273 287 295 292 288 278 267 261 261 258 246 239 231 222 226 225 227 232 229 232 236 237 239 238 237 236 235 235 235 234 233 232 232 231 229 229 228 227 227 226 225 223 221 220 214 210 208 202 198 197 195 198 203 203 202 199 190 181 174 170 168 166 166 165 165 169 171 167 164
179 174 192 189 170 138 150 201 221 98 157 177 178 262 266 245 197 200 204 212 224 226 222 242 270 283 280 275 265 266 280 286 286 283 276 273 269 257 236 229 226 222 226 226 229 235 237 242 243 244 245 244 243 241 237 235 234 234 233 231 231 230 228 227 226 225 224 223 222 219 218 216 210 206 203 200 199 197 195 199 203 202 199 193 186 179 174 172 171 169 169 169 169 172 172 167 166
Height
826 825 825 825 825 825 827 828 843 855 856 868 876 873 868 865 868 865 864 862 861 861 861 862 862 862 865 867 867 868 871 871 872 879 876 866 865 866 868 869 870 871 872 873 874 875 875 876 877 878 878 879 879 880 881 881 882 882 883 883 884 884 885 886 885 886 886 886 886 886 887 887 887 887 887 887 887 887 887 887 887 887 887 887 887 887 887 887 887 887 887 886 887 886 887 887 887
825 826 825 825 824 825 832 834 850 865 861 871 876 872 868 867 867 862 861 860 860 862 862 862 862 863 865 865 865 867 870 870 869 869 867 866 866 867 869 870 871 872 872 873 874 875 876 876 877 878 879 879 880 881 882 882 883 883 884 884 885 885 886 886 886 886 887 887 887 887 887 887 888 888 888 888 888 888 888 888 888 888 889 888 888 888 888 888 888 888 888 888 888 888 888 888 888
825 825 825 825 825 826 834 837 853 869 867 873 871 868 869 865 862 859 859 859 861 862 862 862 861 863 864 866 866 868 870 869 868 866 866 866 867 868 869 870 872 872 873 874 875 875 876 877 878 878 879 880 881 881 882 883 883 884 885 885 886 886 887 887 887 887 887 888 888 888 888 888 888 888 888 888 888 888 889 889 889 889 889 889 889 889 889 890 889 890 889 890 890 890 890 890 890
826 825 824 824 828 831 838 847 859 866 869 878 870 863 866 860 857 859 860 860 862 862 861 862 862 864 864 866 867 869 871 869 867 865 866 867 867 868 869 871 872 873 874 874 875 876 876 877 878 879 880 880 881 882 883 883 884 885 885 886 886 887 887 888 888 888 888 889 889 889 889 889 889 889 889 889 889 889 889 890 890 890 890 890 891 891 891 891 891 891 891 891 891 891 891 891 891
825 825 825 824 831 837 845 860 866 863 865 873 866 860 861 857 856 860 861 862 863 862 861 862 864 866 865 867 868 869 869 868 867 865 866 866 867 868 869 871 872 873 874 875 875 876 877 878 878 879 880 881 882 882 883 884 884 885 886 886 887 888 888 888 889 889 889 889 890 890 890 890 890 890 890 890 890 890 890 890 890 891 891 891 892 892 892 892 892 892 892 892 892 892 892 892 892
825 825 825 824 834 839 847 861 864 862 859 861 858 856 856 855 858 860 862 863 862 863 861 862 863 865 868 867 866 867 866 867 866 865 866 867 868 868 870 871 872 873 874 875 876 877 877 878 879 879 880 881 882 883 884 884 885 886 886 887 887 888 888 889 890 890 890 890 890 890 890 890 891 891 890 890 890 890 891 891 891 892 892 893 893 893 893 893 893 893 893 893 893 893 893 893 893
825 826 829 831 838 842 850 860 862 861 859 860 857 853 854 855 860 860 862 863 861 862 862 862 861 863 869 868 866 866 864 865 865 865 866 867 868 869 870 871 872 873 874 875 876 877 878 878 879 880 881 882 883 883 884 885 886 886 887 887 888 889 889 890 890 890 890 890 891 890 891 891 891 891 891 891 891 891 892 892 892 893 893 894 894 894 894 894 894 894 894 894 894 894 894 894 893
825 829 835 837 846 852 858 863 863 863 862 865 861 856 854 856 860 859 861 862 860 861 861 862 862 863 868 868 868 866 864 865 865 866 867 867 868 869 870 871 872 873 874 875 876 877 878 879 879 880 881 882 883 884 885 885 886 886 887 888 888 889 890 890 890 890 890 891 891 891 892 892 892 892 892 892 892 893 893 893 894 894 895 895 895 895 895 895 895 895 895 895 895 895 895 894 894
826 830 838 841 851 859 863 865 864 865 863 863 861 858 857 858 860 859 860 861 860 861 861 862 862 863 867 868 868 865 864 865 865 866 867 868 868 869 871 871 872 873 874 875 876 877 878 879 880 881 881 882 883 884 885 886 886 887 888 888 889 890 890 891 891 891 891 891 891 892 892 893 893 893 893 894 894 894 894 894 895 895 896 896 896 896 896 896 896 896 896 896 896 896 895 895 895
829 834 840 846 855 860 862 864 863 862 861 860 859 857 858 859 859 858 859 859 860 860 861 864 863 864 866 868 868 865 864 864 865 867 867 868 869 869 871 872 873 873 874 875 876 878 879 880 880 881 882 883 883 884 885 886 886 887 888 889 889 890 891 891 891 891 892 892 892 892 893 893 894 894 894 895 895 895 895 895 896 896 897 897 897 897 897 897 897 897 897 897 896 896 896 896 896
835 839 842 850 858 860 861 861 858 859 859 859 858 856 858 858 856 858 858 859 862 860 861 863 863 865 868 869 867 864 864 865 865 866 867 868 869 870 871 872 873 874 874 875 876 878 879 880 881 881 882 883 884 884 885 886 887 888 888 889 890 890 891 892 892 892 892 893 893 893 894 894 895 895 895 895 896 896 896 896 896 897 897 898 898 898 898 898 898 897 897 897 897 897 897 897 897
838 845 844 851 860 860 864 862 857 856 858 857 854 854 857 857 855 856 857 858 860 860 860 861 860 862 868 871 866 863 864 864 865 865 867 867 869 870 871 872 873 874 875 876 877 878 879 880 881 882 883 883 884 885 886 886 887 888 889 889 890 891 892 892 893 893 893 893 894 894 895 895 895 896 896 896 896 897 897 897 897 898 898 898 898 899 898 898 898 898 898 898 898 898 898 898 898
841 848 844 852 866 865 866 864 860 858 854 853 852 853 856 855 853 854 855 858 859 860 858 858 859 859 865 870 865 864 864 863 865 866 867 867 868 870 872 873 873 875 875 876 877 878 879 880 881 882 883 884 885 885 886 887 887 888 889 890 890 891 892 893 893 893 894 894 894 895 895 896 896 896 897 897 897 897 897 898 898 898 899 899 899 899 899 899 899 899 899 899 899 899 899 899 899
843 848 844 857 875 870 865 861 860 860 852 850 852 854 855 853 853 853 854 857 859 858 855 857 858 857 864 869 865 863 862 862 865 865 867 867 868 870 872 873 874 875 875 876 877 878 879 880 881 882 883 884 885 885 886 887 888 889 889 890 891 891 892 893 893 894 894 894 895 895 896 896 896 897 897 897 898 898 898 898 899 899 899 900 900 900 900 900 900 900 900 900 900 900 900 900 900
843 848 848 859 871 867 865 862 863 861 851 849 852 854 853 853 854 854 853 854 856 856 856 857 857 856 860 863 861 859 859 861 864 865 867 867 869 870 872 873 874 875 876 876 877 878 879 879 880 881 883 883 885 885 886 887 888 889 890 890 891 892 893 893 894 894 895 895 895 896 896 897 897 897 898 898 898 898 899 899 899 900 900 900 900 900 900 900 900 901 901 901 901 901 901 901 901
843 845 850 857 865 864 863 866 868 862 851 850 855 855 851 853 855 853 853 853 854 857 857 857 857 856 857 857 856 856 857 860 863 865 867 868 869 870 872 873 873 875 875 876 877 877 878 879 879 880 882 883 884 885 886 888 888 889 890 891 891 892 893 893 894 895 895 895 896 896 896 897 897 898 898 898 899 899 899 899 900 900 900 900 900 901 901 901 901 901 901 901 901 901 901 901 901
843 844 852 857 864 863 860 864 863 856 849 851 855 855 851 852 855 853 854 853 854 858 858 858 858 857 856 855 855 855 857 860 862 864 866 868 869 870 871 872 873 874 875 875 876 877 878 878 879 880 881 882 884 885 886 887 889 890 890 891 892 892 893 893 894 895 895 896 896 897 897 897 898 898 898 899 899 899 899 900 900 900 900 900 901 901 901 901 901 902 902 902 902 902 902 902 902
844 851 857 859 863 860 856 857 857 854 850 849 852 853 851 851 853 853 853 853 855 859 859 858 857 856 855 855 855 855 857 859 862 863 864 866 867 869 870 871 872 873 874 874 875 876 877 878 879 879 880 882 883 885 886 887 888 889 890 891 891 892 893 893 894 894 895 896 896 897 897 897 898 898 899 899 899 900 900 900 900 900 900 901 901 901 901 901 902 902 902 902 902 902 902 902 902
849 857 859 858 860 857 856 855 854 854 851 849 851 853 852 850 851 852 852 855 857 858 858 858 857 855 854 855 855 856 858 859 860 861 862 864 865 866 868 869 870 871 872 873 874 875 876 877 878 879 880 881 883 884 885 886 887 888 889 890 891 891 892 893 893 894 895 895 896 897 897 898 898 898 899 899 899 900 900 900 900 901 901 901 901 901 901 901 902 902 902 902 902 902 902 902 902
852 857 857 857 857 855 856 856 854 854 854 851 850 853 854 850 850 851 851 856 859 856 854 856 855 853 854 855 855 856 859 859 860 860 861 862 863 865 866 867 868 869 870 871 873 874 876 877 878 879 880 881 882 883 884 885 886 887 888 889 890 891 891 892 893 894 894 895 896 896 897 897 898 898 899 899 899 900 900 900 900 901 901 901 901 901 901 902 902 902 902 903 903 903 903 903 903
854 854 854 855 857 855 853 854 853 854 856 853 851 854 853 850 851 851 851 855 857 853 848 848 848 848 852 855 855 855 858 859 860 860 861 862 863 864 864 865 867 868 870 871 872 873 875 876 877 878 879 880 881 882 883 884 885 886 888 888 889 890 891 892 892 893 894 895 895 896 897 897 897 898 898 899 899 899 899 900 900 900 901 901 901 901 901 902 902 902 902 903 903 903 903 903 903
854 853 852 854 856 853 850 852 852 853 855 853 853 852 850 850 850 849 849 849 849 846 843 843 843 845 848 851 853 854 856 858 859 859 860 861 862 863 864 865 867 868 869 870 871 873 874 875 876 877 878 879 880 881 882 883 884 885 886 888 889 889 890 891 892 893 894 894 895 895 896 897 897 897 898 898 898 899 899 900 900 900 901 901 901 901 901 902 902 902 902 903 903 903 903 903 902
854 853 853 854 855 852 850 851 851 853 853 851 851 850 850 850 848 850 849 842 841 841 842 843 843 845 847 849 852 853 854 856 857 857 857 858 860 861 863 864 866 867 868 869 871 872 873 875 876 877 877 878 879 880 881 882 883 885 886 887 888 889 890 891 891 892 893 894 895 895 896 896 897 897 898 898 898 899 899 899 900 900 901 901 901 901 901 901 902 902 902 902 903 902 902 902 902
855 854 852 853 854 851 849 850 851 852 851 849 851 850 850 848 847 852 847 839 839 842 842 842 843 845 847 849 851 851 852 853 854 855 856 857 858 860 861 863 864 865 867 868 870 872 873 874 875 876 877 877 878 879 880 882 883 884 885 886 887 888 889 890 891 892 893 893 894 895 895 896 897 897 898 898 898 899 899 899 900 900 900 901 901 901 901 901 901 902 902 902 902 902 902 902 901
855 854 852 852 852 849 849 851 850 850 849 851 852 849 849 849 850 850 842 837 840 842 842 842 843 845 847 848 849 851 852 852 854 856 858 858 859 861 862 862 863 865 866 867 869 870 872 873 874 875 876 877 878 879 880 881 882 883 884 885 886 887 888 889 890 891 892 892 893 894 895 896 896 897 898 898 898 899 899 899 900 900 900 900 900 901 901 901 901 901 901 902 901 901 901 901 901
854 853 852 850 848 847 849 848 847 849 849 851 851 848 849 850 851 845 836 837 839 841 842 843 845 846 846 847 848 850 851 852 854 855 857 858 860 861 861 862 863 864 864 866 867 869 871 872 873 874 875 876 877 878 879 880 881 882 883 884 885 886 887 888 889 890 891 892 892 893 894 895 896 897 897 898 898 899 899 899 900 900 900 900 900 900 901 901 901 901 901 901 901 901 901 900 900
852 852 851 850 848 847 848 846 847 849 848 850 849 849 850 850 852 842 835 840 841 840 843 844 845 846 846 846 847 848 849 850 851 854 856 857 858 858 859 861 862 863 864 865 866 868 869 871 872 873 874 875 877 877 878 879 880 881 882 883 884 885 886 887 888 889 890 891 892 893 893 894 895 896 897 897 898 898 899 899 899 899 900 900 900 900 900 900 900 900 900 900 900 900 900 900 899
853 852 849 849 847 846 847 845 847 847 846 849 848 848 850 851 849 838 835 842 842 840 842 845 845 845 846 846 847 848 848 849 850 853 854 854 854 856 858 859 861 862 863 864 865 866 868 869 870 872 873 874 875 876 877 878 879 880 881 882 883 884 885 886 887 888 889 890 891 892 892 893 894 895 896 897 897 898 898 898 899 899 899 900 900 900 900 900 900 900 900 899 899 899 899 899 899
851 851 851 849 846 845 846 844 847 846 844 847 848 850 852 849 843 834 837 842 841 841 842 845 846 845 847 847 848 848 848 850 851 851 850 851 853 855 856 857 860 861 862 864 865 866 866 868 869 870 872 873 874 875 876 877 878 879 880 882 883 883 885 885 886 887 888 889 890 891 891 892 893 894 895 895 896 897 897 898 898 898 899 899 899 899 899 899 899 899 899 899 898 898 898 898 898
851 853 854 854 853 850 847 847 849 846 845 847 849 854 850 842 837 833 839 842 840 840 840 844 847 846 847 847 848 848 848 849 848 847 848 850 852 854 855 856 858 859 861 863 863 864 865 866 868 869 870 871 872 873 874 876 877 878 879 881 882 882 883 884 885 886 887 888 888 889 890 891 892 893 894 894 895 895 896 897 897 898 898 898 898 898 899 898 899 899 898 898 898 898 897 897 897
854 856 857 860 863 855 847 849 849 844 847 847 848 856 847 835 833 835 840 841 838 837 837 842 846 847 847 846 847 847 847 847 846 846 847 849 851 852 854 855 857 858 859 860 861 863 864 865 866 867 868 869 870 871 872 874 875 877 878 879 880 881 882 883 884 885 886 886 887 888 889 890 891 892 893 893 894 894 895 895 896 896 897 897 897 897 897 897 897 897 897 897 897 896 896 896 896
857 860 863 867 867 859 848 848 849 844 848 848 848 854 847 834 831 835 842 843 839 835 835 840 843 846 846 845 846 845 845 845 846 847 847 848 849 850 851 853 854 855 856 857 859 861 862 863 864 865 866 867 868 869 871 872 873 875 876 877 878 879 880 881 882 883 884 885 886 887 888 889 890 890 892 892 893 894 894 894 895 895 895 896 896 896 896 896 896 896 896 895 895 895 895 895 895
860 862 866 868 867 865 855 849 851 848 848 848 847 849 843 835 833 837 843 842 841 837 835 839 842 843 845 844 845 844 844 845 845 845 845 845 846 846 848 850 852 852 854 855 856 858 859 861 862 863 864 865 867 868 869 870 871 873 874 875 876 877 878 879 881 882 883 884 884 885 886 887 888 889 890 891 892 892 893 893 894 894 894 894 894 894 894 894 894 894 893 894 893 893 893 893 893
863 864 864 865 864 865 859 850 851 852 850 849 848 848 840 832 833 837 840 841 841 838 835 838 840 841 843 843 844 844 844 844 842 840 840 841 842 844 845 847 849 850 852 853 854 855 856 858 859 861 862 863 864 865 867 868 869 870 871 873 874 875 876 877 879 880 880 882 883 884 885 886 887 888 889 889 890 891 891 892 892 892 892 892 892 892 893 893 892 892 892 892 892 892 892 891 891
860 862 863 865 862 863 861 853 853 853 850 850 850 851 843 834 833 833 838 842 839 835 836 838 838 839 841 842 842 842 842 841 837 835 836 839 840 842 843 845 847 848 850 851 852 853 853 855 856 858 860 861 862 863 865 866 867 868 869 870 871 872 873 875 876 877 878 879 880 882 883 884 885 886 887 888 888 889 889 890 890 891 891 891 891 891 891 891 891 890 890 890 890 890 890 890 890
853 857 858 861 861 862 860 853 855 856 853 852 851 850 844 836 832 831 835 841 838 835 836 837 837 838 838 839 839 839 840 836 831 832 835 837 838 839 841 842 844 845 847 849 850 851 851 852 853 854 856 858 860 861 862 863 864 865 866 867 867 869 870 872 873 874 876 877 878 879 880 881 882 884 884 885 886 886 887 888 888 889 889 889 889 889 889 889 889 889 889 889 889 889 889 889 889
851 855 857 860 862 860 857 853 855 856 854 852 851 851 845 838 832 830 835 839 837 834 833 832 833 835 834 835 835 835 835 831 829 832 833 834 835 836 838 839 841 843 844 846 847 847 848 849 850 850 852 855 857 858 859 860 861 862 863 863 864 866 868 869 871 872 873 874 876 877 878 879 880 881 882 883 883 884 885 885 886 886 887 887 887 887 887 888 888 888 888 888 888 888 887 887 887
850 854 857 861 863 858 855 854 854 856 854 851 851 852 846 839 832 830 835 837 832 829 828 827 827 831 833 832 831 831 830 829 828 829 830 831 832 833 834 836 837 839 839 841 842 843 845 846 846 847 848 851 852 854 856 857 857 858 860 860 862 864 865 866 868 869 870 872 873 874 875 876 877 878 879 880 881 881 882 883 883 884 884 885 885 885 886 886 886 886 886 886 886 886 886 886 886
850 856 858 860 862 859 855 854 854 855 853 849 851 851 844 837 832 829 832 832 826 825 825 823 823 826 828 828 827 827 828 827 825 825 826 827 828 829 831 832 833 833 834 835 837 839 842 842 843 843 845 846 848 850 852 853 854 856 857 858 859 861 862 863 864 866 867 868 869 871 872 874 875 876 877 878 878 879 879 880 880 881 882 882 882 883 883 884 884 884 885 885 885 885 885 885 885
852 856 859 860 861 858 854 853 853 853 853 851 852 853 845 836 831 826 827 829 825 823 824 823 824 823 821 822 823 824 824 822 820 821 822 823 824 825 826 827 827 828 829 831 833 835 836 837 837 839 840 842 844 846 847 849 852 854 855 856 857 858 859 860 861 862 863 865 866 867 869 871 872 873 874 875 876 876 876 877 878 879 879 880 880 880 881 881 882 882 883 883 883 884 884 884 884
856 855 857 858 858 855 854 854 852 852 855 856 853 851 842 832 828 822 821 828 827 823 824 822 822 822 821 822 822 820 819 818 816 816 817 820 820 820 820 821 823 824 825 825 826 828 829 830 832 834 836 837 839 841 843 846 849 851 852 854 855 855 856 857 858 858 859 861 863 864 866 868 869 870 871 872 873 874 874 875 876 876 876 877 878 878 878 879 879 880 881 881 881 882 882 883 883
858 855 853 852 851 853 855 855 855 854 855 857 856 852 840 829 827 823 821 825 823 822 823 818 817 819 820 821 818 817 816 815 814 812 813 816 816 816 817 818 819 819 819 819 820 822 823 825 828 830 831 832 834 836 839 842 844 846 848 849 850 851 852 852 852 854 856 858 860 862 864 865 867 868 868 870 870 871 872 872 873 873 874 874 875 876 876 876 877 878 878 878 879 879 880 881 882
860 851 847 848 848 852 854 854 859 858 855 858 860 857 850 838 827 821 823 823 818 818 819 814 813 815 816 816 812 812 812 811 811 810 811 812 812 813 813 813 814 813 813 814 816 818 820 822 824 826 827 828 829 832 834 837 839 841 843 844 845 846 847 848 849 851 853 855 857 859 861 862 864 865 866 867 868 868 869 870 870 871 871 872 873 874 874 874 875 876 876 877 877 878 878 879 880
855 845 844 848 849 853 854 855 861 860 856 859 861 860 861 850 829 821 826 824 816 814 814 811 809 809 809 810 808 807 806 806 808 807 807 808 808 809 808 808 809 809 810 812 814 815 817 819 820 822 823 824 826 828 830 832 834 836 838 840 841 842 843 844 846 848 850 852 855 856 858 860 861 862 864 864 865 865 866 867 868 869 869 870 871 871 872 872 873 874 874 875 875 876 877 877 878
849 846 847 848 848 852 854 857 861 862 860 859 858 859 861 849 829 826 828 822 816 811 808 806 804 803 802 802 802 802 801 802 804 805 804 805 805 805 805 806 807 807 808 810 810 812 814 816 818 819 820 821 823 825 827 828 830 832 834 835 837 838 840 842 844 846 847 849 851 853 855 857 858 860 861 861 862 862 863 865 866 867 867 868 868 869 870 870 871 872 873 873 874 874 875 876 876
845 848 849 849 851 853 856 859 860 863 863 858 855 857 859 844 823 824 828 821 817 812 805 803 802 800 799 798 798 798 799 801 802 802 801 801 802 802 804 804 804 805 806 807 808 809 811 813 815 816 816 817 819 821 823 825 827 828 830 831 833 835 837 840 842 843 845 847 848 850 852 853 855 857 858 858 859 860 861 862 863 864 865 866 867 867 868 869 869 870 871 872 873 873 874 875 875
845 848 847 851 856 856 860 861 859 863 862 860 859 856 858 849 824 816 819 813 811 808 803 801 799 798 796 795 796 796 798 799 800 801 799 799 799 799 801 800 800 801 803 804 805 806 807 809 810 811 812 814 816 818 820 821 823 825 826 827 829 831 834 836 838 840 842 843 845 846 848 850 852 853 854 855 856 858 859 860 861 862 863 864 865 866 866 867 868 869 870 871 872 872 872 873 874
842 842 844 853 858 858 861 862 863 865 861 862 867 861 857 848 823 809 810 807 807 806 800 796 793 792 791 792 795 796 798 799 799 799 798 797 797 796 797 796 796 798 799 800 801 802 804 805 807 808 809 811 812 814 816 817 820 821 823 825 826 829 831 833 834 836 838 840 841 843 845 847 849 850 852 853 854 855 857 858 859 860 861 862 863 864 865 866 867 868 869 870 870 871 871 872 873
841 840 846 855 862 866 867 866 866 865 860 861 868 866 855 834 812 806 806 804 803 803 801 797 793 792 790 791 795 796 798 799 798 797 797 796 795 794 794 793 793 795 795 796 798 799 801 802 804 805 806 808 809 811 813 814 816 818 819 822 824 826 828 829 831 833 834 836 838 840 842 844 845 847 848 850 851 853 854 856 857 858 859 860 861 862 864 864 865 867 867 868 869 870 870 871 871
842 840 843 850 861 871 873 869 867 865 860 862 867 865 849 823 806 803 800 796 794 796 800 800 798 797 793 794 797 798 798 797 796 796 794 794 793 792 791 791 791 792 792 794 794 795 797 799 801 802 803 805 807 809 810 812 813 815 817 819 820 823 824 826 827 829 831 833 835 837 838 840 841 843 845 847 849 850 852 853 855 856 857 858 859 861 862 863 864 865 866 866 867 868 868 868 869
836 833 837 840 844 854 861 859 859 859 857 864 869 857 834 814 804 801 798 797 796 796 799 800 800 800 800 799 799 797 795 793 792 793 791 791 790 789 789 789 789 789 790 791 792 793 794 796 798 799 801 803 805 806 808 809 811 812 814 816 817 819 821 822 824 826 828 830 832 833 835 837 838 840 842 844 846 848 850 852 853 855 855 856 858 859 860 861 862 863 863 864 865 866 866 867 868
838 834 837 838 834 838 852 857 855 853 852 858 860 844 823 809 800 795 796 796 795 795 795 795 795 797 800 799 793 791 789 789 789 789 788 789 788 787 787 787 787 788 788 789 790 791 792 793 795 797 799 801 803 804 805 807 808 810 811 813 815 816 818 819 821 823 825 827 829 830 832 834 836 837 839 841 844 845 848 849 851 852 853 854 856 857 858 859 859 860 861 862 863 864 865 866 866
838 838 837 835 833 832 844 858 860 855 850 847 846 833 818 812 801 790 790 789 786 787 788 789 789 791 795 792 788 788 788 788 788 788 788 787 786 786 786 786 786 786 787 788 789 790 791 792 794 795 797 799 800 802 803 804 806 807 808 810 812 813 815 816 818 820 822 824 826 828 830 832 833 835 837 839 841 843 845 847 848 850 851 853 854 855 856 856 857 858 859 860 862 863 864 865 866
831 835 830 829 835 834 835 847 855 856 852 843 841 834 822 820 810 792 787 788 783 780 783 788 787 786 788 786 785 788 788 788 788 786 787 787 786 786 785 785 786 786 787 788 789 790 790 791 792 794 795 796 798 799 800 802 803 804 806 807 809 810 811 813 815 817 819 821 824 825 827 829 831 832 834 836 838 841 843 845 846 848 849 851 852 853 853 854 855 856 858 859 861 862 863 864 865
825 827 823 824 835 837 835 841 845 850 852 841 839 840 829 819 809 792 786 788 786 781 782 785 784 783 784 781 780 783 785 786 785 784 785 785 784 784 784 785 786 786 787 788 788 789 790 791 791 792 793 794 796 797 798 799 800 801 803 804 806 807 809 811 812 815 817 819 821 823 825 826 828 830 831 833 835 838 840 843 844 846 847 849 850 851 852 853 854 855 857 858 860 861 862 863 864
827 826 825 825 827 828 830 835 836 839 846 841 838 836 821 808 801 792 786 786 783 781 780 780 781 783 783 781 779 781 782 782 783 783 783 783 783 783 784 785 786 786 787 787 788 789 789 790 791 791 792 793 794 795 795 797 798 799 800 802 803 805 806 808 810 812 814 815 818 819 821 823 824 827 828 830 832 834 837 839 842 844 845 847 848 849 851 852 853 855 856 857 859 860 861 862 863
824 824 825 825 825 826 827 831 833 832 835 839 839 829 808 797 795 786 781 782 778 777 778 777 778 780 781 782 782 783 782 782 783 783 783 782 782 783 784 785 786 786 787 787 787 788 788 789 790 790 791 791 792 792 793 794 795 797 798 799 801 802 804 806 807 809 811 812 814 816 818 819 821 823 825 827 830 832 834 837 840 842 843 845 846 848 850 851 852 854 856 857 858 860 861 861 862
814 816 817 816 820 825 827 832 836 833 831 834 839 828 801 789 790 783 777 777 773 775 779 777 778 779 778 780 783 784 784 783 784 784 784 783 782 782 783 784 785 785 785 786 786 786 787 787 788 789 789 790 790 791 792 793 794 795 796 797 799 800 802 803 805 806 808 809 811 813 814 816 818 820 823 825 827 830 833 835 838 840 841 843 845 847 848 850 851 853 855 856 857 858 859 860 861